PWCRAW Weather Reports


Display with metric or nautical units.
time (UTC)temp
F
wind
direction
speed
MPH
gust
MPH
rain 1hr
in
rain 24hr
in
rain mn
in
humidity
%
barometer
mb
20260506121504 66 235 6.0 14.0 0.00 1.00 0.08 60 1003.9
20260506121404 66 228 5.0 14.0 0.00 1.00 0.08 62 1003.9
20260506121304 66 229 5.0 14.0 0.00 1.00 0.08 63 1004.1
20260506121211 66 229 5.0 14.0 0.00 1.00 0.08 64 1004.1
20260506121204 66 229 5.0 14.0 0.00 1.00 0.08 64 1004.1
20260506121111 65 230 5.0 14.0 0.00 1.00 0.08 63 1004.0
20260506121105 65 231 5.0 14.0 0.00 1.00 0.08 63 1004.0
20260506120804 65 235 6.0 14.0 0.00 1.00 0.08 62 1004.0
20260506120704 65 235 6.0 14.0 0.00 1.00 0.08 62 1003.9
20260506120611 65 237 6.0 14.0 0.00 1.00 0.08 62 1003.9
20260506120605 65 238 6.0 14.0 0.00 1.00 0.08 64 1003.9
20260506120504 65 238 6.0 13.0 0.00 1.00 0.08 64 1003.9
20260506120304 65 235 6.0 13.0 0.00 1.00 0.08 62 1003.9
20260506120204 65 234 6.0 13.0 0.00 1.00 0.08 62 1003.8
20260506120105 66 231 6.0 13.0 0.00 1.00 0.08 61 1003.9
20260506120005 66 228 7.0 15.0 0.00 1.00 0.08 62 1003.8
20260506115904 66 232 7.0 15.0 0.00 1.00 0.08 61 1003.9
20260506115804 66 236 7.0 17.0 0.00 1.00 0.08 64 1003.9
20260506115704 65 237 7.0 17.0 0.00 1.00 0.08 63 1004.1
20260506115604 65 235 7.0 17.0 0.00 1.00 0.08 62 1004.0
20260506115504 65 233 8.0 17.0 0.00 1.00 0.08 61 1004.0
20260506115411 65 233 8.0 17.0 0.00 1.00 0.08 61 1004.0
20260506115404 65 234 8.0 17.0 0.00 1.00 0.08 61 1004.0
20260506115307 65 233 8.0 17.0 0.00 1.00 0.08 63 1004.0
20260506115111 65 235 8.0 17.0 0.00 1.00 0.08 61 1004.0
20260506115004 65 239 7.0 17.0 0.00 1.00 0.08 62 1003.9
20260506114804 65 229 6.0 14.0 0.00 1.00 0.08 61 1004.1
20260506114705 66 228 6.0 14.0 0.00 1.00 0.08 62 1003.9
20260506114505 66 229 5.0 14.0 0.00 1.00 0.08 61 1004.0
20260506114404 66 233 6.0 14.0 0.00 1.00 0.08 61 1004.0
20260506114304 66 238 6.0 13.0 0.00 1.00 0.08 64 1003.9
20260506114104 66 235 6.0 13.0 0.00 1.00 0.08 62 1003.7
20260506114005 66 231 5.0 13.0 0.00 1.00 0.08 65 1003.9
20260506113904 66 231 5.0 13.0 0.00 1.00 0.08 63 1004.0
20260506113704 66 229 6.0 14.0 0.00 1.00 0.08 63 1003.8
20260506113604 66 221 6.0 14.0 0.00 1.00 0.08 62 1003.9
20260506113304 66 205 6.0 14.0 0.00 1.00 0.08 64 1004.0
20260506113204 65 205 5.0 14.0 0.00 1.00 0.08 64 1003.8
20260506113104 65 207 6.0 14.0 0.00 1.00 0.08 63 1004.0
20260506113004 65 205 6.0 14.0 0.00 1.00 0.08 63 1004.0
20260506112911 65 207 6.0 14.0 0.00 1.00 0.08 62 1004.1
20260506112904 65 208 7.0 14.0 0.00 1.00 0.08 62 1004.1
20260506112804 65 208 7.0 14.0 0.00 1.00 0.08 63 1004.1
20260506112604 65 220 6.0 14.0 0.00 1.00 0.08 63 1003.8
20260506112504 65 225 6.0 14.0 0.00 1.00 0.08 66 1004.1
20260506112404 65 230 6.0 14.0 0.00 1.00 0.08 66 1004.1
20260506112306 65 227 6.0 14.0 0.00 1.00 0.08 65 1004.1
20260506112204 65 227 6.0 14.0 0.00 1.00 0.08 64 1003.9
20260506112104 65 225 6.0 14.0 0.00 1.00 0.08 63 1003.9
20260506112004 65 226 6.0 14.0 0.00 1.00 0.08 63 1003.9
20260506111904 65 222 6.0 14.0 0.00 1.00 0.08 63 1004.0
20260506111811 65 220 6.0 14.0 0.00 1.00 0.08 63 1004.0
20260506111704 66 216 6.0 14.0 0.00 1.00 0.08 63 1004.1
20260506111504 66 212 5.0 11.0 0.00 1.00 0.08 61 1004.2
20260506111404 66 212 5.0 11.0 0.00 1.00 0.08 61 1004.1
20260506111304 67 214 5.0 10.0 0.00 1.00 0.08 60 1004.1
20260506111204 67 215 5.0 10.0 0.00 1.00 0.08 60 1003.9
20260506111104 67 214 5.0 10.0 0.00 1.00 0.08 60 1004.1
20260506111004 67 215 5.0 13.0 0.00 1.00 0.08 62 1004.1
20260506110904 67 215 6.0 13.0 0.00 1.00 0.08 62 1004.0
20260506110804 67 214 6.0 13.0 0.00 1.00 0.08 62 1004.0
20260506110704 67 214 6.0 17.0 0.00 1.00 0.08 63 1004.1
20260506110604 67 213 6.0 17.0 0.00 1.00 0.08 62 1004.2
20260506110504 67 212 7.0 17.0 0.00 1.00 0.08 61 1004.1
20260506110404 67 212 7.0 17.0 0.00 1.00 0.08 62 1004.1
20260506110304 67 211 7.0 17.0 0.00 1.00 0.08 61 1004.1
20260506110204 67 209 7.0 17.0 0.00 1.00 0.08 61 1004.2
20260506110111 67 210 8.0 17.0 0.00 1.00 0.08 61 1004.0
20260506110104 67 211 8.0 17.0 0.00 1.00 0.08 61 1004.0
20260506110005 67 211 8.0 17.0 0.00 1.00 0.08 61 1004.1
20260506105804 66 213 8.0 17.0 0.00 1.00 0.08 61 1004.1
20260506105704 66 214 7.0 17.0 0.00 1.00 0.08 63 1003.8
20260506105604 66 213 7.0 17.0 0.00 1.00 0.08 63 1003.9
20260506105504 66 215 7.0 17.0 0.00 1.00 0.08 63 1004.0
20260506105404 65 217 7.0 17.0 0.00 1.00 0.08 62 1004.0
20260506105305 65 217 7.0 17.0 0.00 1.00 0.08 63 1004.0
20260506105204 65 219 6.0 17.0 0.00 1.00 0.08 63 1004.0
20260506105104 65 217 6.0 17.0 0.00 1.00 0.08 62 1004.1
20260506105011 65 218 6.0 17.0 0.00 1.00 0.08 63 1003.9
20260506105004 65 219 6.0 17.0 0.00 1.00 0.08 63 1003.9
20260506104911 65 219 5.0 15.0 0.00 1.00 0.08 62 1003.9
20260506104904 65 220 5.0 13.0 0.00 1.00 0.08 62 1003.9
20260506104604 65 218 6.0 14.0 0.00 1.00 0.08 63 1003.9
20260506104504 65 215 6.0 14.0 0.00 1.00 0.08 62 1003.9
20260506104404 65 214 6.0 14.0 0.00 1.00 0.08 63 1004.2
20260506104305 65 215 6.0 19.0 0.00 1.00 0.08 61 1004.1
20260506104204 65 213 6.0 19.0 0.00 1.00 0.08 64 1004.0
20260506104104 65 213 6.0 19.0 0.00 1.00 0.08 60 1004.0
20260506103904 65 212 6.0 19.0 0.00 1.00 0.08 62 1004.0
20260506103804 65 215 6.0 19.0 0.00 1.00 0.08 65 1003.8
20260506103704 65 213 6.0 19.0 0.00 1.00 0.08 64 1004.0
20260506103604 65 213 6.0 19.0 0.00 1.00 0.08 62 1004.1
20260506103504 65 216 6.0 19.0 0.00 1.00 0.08 64 1004.0
20260506103404 65 216 6.0 19.0 0.00 1.00 0.08 65 1004.2
20260506103304 65 213 6.0 14.0 0.00 1.00 0.08 65 1003.9
20260506103204 64 212 6.0 14.0 0.00 1.00 0.08 65 1003.9
20260506103104 64 211 7.0 16.0 0.00 1.00 0.08 64 1004.3
20260506103004 64 211 7.0 16.0 0.00 1.00 0.08 64 1004.1
20260506102904 64 209 7.0 16.0 0.00 1.00 0.08 64 1004.3
20260506102804 64 206 7.0 16.0 0.00 1.00 0.08 65 1004.3
20260506102704 64 208 7.0 21.0 0.00 1.00 0.08 66 1004.3
20260506102611 64 207 7.0 21.0 0.00 1.00 0.08 66 1004.4
20260506102604 64 207 7.0 21.0 0.00 1.00 0.08 66 1004.4
20260506102504 64 202 7.0 21.0 0.00 1.00 0.08 67 1004.5
20260506102204 64 200 8.0 21.0 0.00 1.00 0.08 67 1004.4
20260506102104 64 197 8.0 22.0 0.00 1.00 0.08 68 1004.5
20260506102004 64 197 8.0 22.0 0.00 1.00 0.08 65 1004.4
20260506101904 64 196 9.0 22.0 0.00 1.00 0.08 66 1004.4
20260506101811 64 196 9.0 22.0 0.00 1.00 0.08 66 1004.4
20260506101804 64 196 9.0 22.0 0.00 1.00 0.08 66 1004.4
20260506101704 64 194 9.0 22.0 0.00 1.00 0.08 66 1004.5
20260506101504 64 198 9.0 22.0 0.00 1.00 0.08 67 1004.5
20260506101411 64 199 10.0 22.0 0.00 1.00 0.08 67 1004.4
20260506101404 64 199 10.0 22.0 0.00 1.00 0.08 68 1004.4
20260506101304 64 200 10.0 22.0 0.00 1.00 0.08 68 1004.4
20260506101104 64 202 10.0 22.0 0.00 1.00 0.08 66 1004.3
20260506101004 64 205 10.0 17.0 0.00 1.00 0.08 66 1004.3
20260506100904 64 205 10.0 17.0 0.00 1.00 0.08 66 1004.3
20260506100804 64 202 9.0 17.0 0.00 1.00 0.08 67 1004.3
20260506100704 64 202 9.0 17.0 0.00 1.00 0.08 66 1004.4
20260506100504 64 199 8.0 17.0 0.00 1.00 0.08 66 1004.5
20260506100404 64 200 8.0 17.0 0.00 1.00 0.08 67 1004.4
20260506100304 64 197 7.0 15.0 0.00 1.00 0.08 67 1004.3
20260506100005 64 195 7.0 14.0 0.00 1.00 0.08 68 1004.3
20260506095904 64 195 6.0 11.0 0.00 1.00 0.08 68 1004.4
20260506095804 64 198 6.0 11.0 0.00 1.00 0.08 68 1004.5
20260506095604 64 206 6.0 13.0 0.00 1.00 0.08 67 1004.3
20260506095505 64 208 6.0 13.0 0.00 1.00 0.08 68 1004.5
20260506095404 64 213 6.0 13.0 0.00 1.00 0.08 68 1004.4
20260506095305 64 216 6.0 13.0 0.00 1.00 0.08 67 1004.3
20260506095204 64 220 6.0 15.0 0.00 1.00 0.08 69 1004.3
20260506095104 64 220 5.0 15.0 0.00 1.00 0.08 69 1004.3
20260506095004 64 222 5.0 15.0 0.00 1.00 0.08 69 1004.4
20260506094904 63 225 6.0 15.0 0.00 1.00 0.08 68 1004.3
20260506094811 63 226 6.0 15.0 0.00 1.00 0.08 69 1004.4
20260506094804 63 226 6.0 15.0 0.00 1.00 0.08 69 1004.4
20260506094704 63 226 6.0 15.0 0.00 1.00 0.08 68 1004.4
20260506094504 63 223 6.0 15.0 0.00 1.00 0.08 71 1004.5
20260506094404 62 222 6.0 15.0 0.00 1.00 0.08 71 1004.3
20260506094304 62 219 6.0 15.0 0.00 1.00 0.08 70 1004.5
20260506094104 62 214 6.0 15.0 0.00 1.00 0.08 69 1004.2
20260506094005 62 216 6.0 15.0 0.00 1.00 0.08 70 1004.2
20260506093904 62 219 6.0 15.0 0.00 1.00 0.08 70 1004.3
20260506093804 62 220 6.0 15.0 0.00 1.00 0.08 72 1004.2
20260506093704 61 221 5.0 15.0 0.00 1.00 0.08 72 1004.3
20260506093604 61 217 6.0 14.0 0.00 1.00 0.08 72 1004.2
20260506093504 61 220 6.0 14.0 0.00 1.00 0.08 72 1004.3
20260506093404 60 220 7.0 18.0 0.00 1.00 0.08 72 1004.2
20260506093311 61 222 7.0 18.0 0.00 1.00 0.08 72 1004.1
20260506093304 61 224 7.0 18.0 0.00 1.00 0.08 72 1004.1
20260506093204 60 228 8.0 18.0 0.00 1.00 0.08 73 1004.2
20260506093004 61 233 8.0 18.0 0.00 1.00 0.08 71 1004.1
20260506092904 60 231 9.0 18.0 0.00 1.00 0.08 71 1004.1
20260506092804 61 231 9.0 21.0 0.00 1.00 0.08 71 1004.1
20260506092704 60 230 10.0 21.0 0.00 1.00 0.08 70 1004.0
20260506092604 60 232 10.0 21.0 0.00 1.00 0.08 70 1004.1
20260506092504 60 234 10.0 21.0 0.00 1.00 0.08 70 1004.2
20260506092404 60 237 9.0 21.0 0.00 1.00 0.08 70 1004.0
20260506092306 60 235 9.0 21.0 0.00 1.00 0.08 71 1004.1
20260506092204 60 234 9.0 21.0 0.00 1.00 0.08 72 1004.3
20260506092104 60 234 9.0 21.0 0.00 1.00 0.08 72 1004.0
20260506092004 60 229 10.0 21.0 0.00 1.00 0.08 70 1004.0
20260506091904 61 228 10.0 21.0 0.00 1.00 0.08 70 1004.0
20260506091804 61 227 9.0 21.0 0.00 1.00 0.08 70 1004.0
20260506091704 61 227 9.0 19.0 0.00 1.00 0.08 72 1004.2
20260506091605 61 226 8.0 19.0 0.00 1.00 0.08 70 1004.1
20260506091504 61 225 8.0 19.0 0.00 1.00 0.08 69 1004.0
20260506091404 62 222 8.0 19.0 0.00 1.00 0.08 70 1004.0
20260506091304 62 224 8.0 19.0 0.00 1.00 0.08 69 1004.2
20260506091104 62 222 8.0 19.0 0.00 1.00 0.08 70 1004.0
20260506091004 62 224 8.0 15.0 0.00 1.00 0.08 70 1003.9
20260506090904 61 224 8.0 15.0 0.00 1.00 0.08 69 1004.1
20260506090804 61 221 9.0 17.0 0.00 1.00 0.08 69 1004.0
20260506090704 61 222 8.0 17.0 0.00 1.00 0.08 72 1004.0
20260506090611 61 224 9.0 17.0 0.00 1.00 0.08 71 1003.8
20260506090504 61 221 9.0 17.0 0.00 1.00 0.08 71 1003.9
20260506090312 61 218 8.0 17.0 0.00 1.00 0.08 70 1004.0
20260506090304 61 217 8.0 17.0 0.00 1.00 0.08 70 1004.0
20260506090204 61 215 8.0 17.0 0.00 1.00 0.08 69 1004.0
20260506090005 61 215 7.0 17.0 0.00 1.00 0.08 69 1004.1
20260506085904 61 218 8.0 17.0 0.00 1.00 0.08 71 1003.8
20260506085804 61 222 8.0 15.0 0.00 1.00 0.08 70 1003.8
20260506085704 61 223 8.0 16.0 0.00 1.00 0.08 71 1003.8
20260506085611 61 223 8.0 16.0 0.00 1.00 0.08 71 1003.9
20260506085604 61 221 8.0 16.0 0.00 1.00 0.08 71 1003.9
20260506085504 61 218 8.0 16.0 0.00 1.00 0.08 71 1003.7
20260506085413 61 218 8.0 16.0 0.00 1.00 0.08 71 1003.8
20260506085306 61 219 9.0 16.0 0.00 1.00 0.08 71 1003.9
20260506085004 60 220 10.0 16.0 0.00 1.00 0.08 71 1003.9
20260506084904 60 219 10.0 16.0 0.00 1.00 0.08 71 1004.0
20260506084805 60 223 10.0 16.0 0.00 1.00 0.08 72 1003.8
20260506084712 60 224 10.0 16.0 0.00 1.00 0.08 72 1004.0
20260506084705 60 224 10.0 16.0 0.00 1.00 0.08 72 1004.0
20260506084604 60 225 10.0 16.0 0.00 1.00 0.08 71 1003.9
20260506084406 60 229 10.0 19.0 0.00 1.00 0.08 73 1004.0
20260506084304 60 229 10.0 19.0 0.00 1.00 0.08 73 1003.9
20260506084204 60 227 10.0 19.0 0.00 1.00 0.08 73 1003.8
20260506084104 60 227 10.0 19.0 0.00 1.00 0.08 72 1003.9
20260506084004 60 225 9.0 19.0 0.00 1.00 0.08 73 1003.8
20260506083904 60 224 9.0 19.0 0.00 1.00 0.08 72 1003.8
20260506083704 60 222 10.0 22.0 0.00 1.00 0.08 74 1003.7
20260506083605 60 222 10.0 22.0 0.00 1.00 0.08 73 1003.9
20260506083404 60 219 10.0 22.0 0.00 1.00 0.08 75 1003.8
20260506083304 60 223 10.0 22.0 0.00 1.00 0.08 74 1003.6
20260506083204 60 227 10.0 22.0 0.00 1.00 0.08 76 1003.6
20260506083104 60 229 11.0 22.0 0.00 1.00 0.08 75 1003.6
20260506082904 60 232 12.0 22.0 0.00 1.00 0.08 75 1003.6
20260506082804 59 230 12.0 22.0 0.00 1.00 0.08 73 1003.8
20260506082704 59 230 12.0 21.0 0.00 1.00 0.08 74 1003.9
20260506082604 59 232 11.0 21.0 0.00 1.00 0.08 76 1003.8
20260506082504 59 236 12.0 23.0 0.00 1.00 0.08 76 1003.7
20260506082404 59 238 12.0 23.0 0.00 1.00 0.08 75 1003.6
20260506082305 59 233 13.0 23.0 0.00 1.00 0.08 75 1003.6
20260506082204 59 231 13.0 23.0 0.00 1.00 0.08 75 1003.5
20260506082104 59 231 13.0 23.0 0.00 1.00 0.08 75 1003.5
20260506082004 59 230 13.0 25.0 0.00 1.00 0.08 76 1003.6
20260506081904 59 228 13.0 25.0 0.00 1.00 0.08 75 1003.6
20260506081804 59 227 13.0 25.0 0.00 1.00 0.08 76 1003.7
20260506081604 59 224 13.0 25.0 0.00 1.00 0.08 76 1003.5
20260506081512 58 222 13.0 25.0 0.00 1.00 0.08 76 1003.5
20260506081504 58 221 13.0 25.0 0.00 1.00 0.08 76 1003.5
20260506081404 58 219 13.0 25.0 0.00 1.00 0.08 77 1003.5
20260506081211 58 219 11.0 25.0 0.00 1.00 0.08 78 1003.6
20260506081204 58 219 11.0 25.0 0.00 1.00 0.08 78 1003.6
20260506081104 58 216 11.0 25.0 0.00 1.00 0.08 79 1003.5
20260506081011 58 218 10.0 22.0 0.00 1.00 0.08 79 1003.3
20260506080904 58 218 10.0 22.0 0.00 1.00 0.08 78 1003.5
20260506080604 57 223 10.0 19.0 0.00 1.00 0.08 79 1003.3
20260506080504 57 221 10.0 22.0 0.00 1.00 0.08 79 1003.3
20260506080404 57 217 11.0 22.0 0.00 1.00 0.08 79 1003.6
20260506080204 57 218 12.0 22.0 0.00 1.00 0.08 77 1003.5
20260506080106 57 219 12.0 22.0 0.00 1.00 0.08 78 1003.3
20260506073504 57 239 9.0 23.0 0.00 1.00 0.08 80 1003.2
20260506073404 57 242 7.0 22.0 0.00 1.00 0.08 80 1003.3
20260506073304 57 240 7.0 19.0 0.00 1.00 0.08 80 1003.3
20260506073204 57 241 7.0 19.0 0.00 1.00 0.08 79 1003.3
20260506073104 57 243 6.0 19.0 0.00 1.00 0.08 80 1003.5
20260506073004 57 253 5.0 19.0 0.00 1.00 0.08 80 1003.5
20260506072904 57 261 5.0 14.0 0.00 1.00 0.08 80 1003.3
20260506072804 57 257 5.0 14.0 0.00 1.00 0.08 79 1003.3
20260506072704 57 261 4.0 14.0 0.00 1.00 0.08 81 1003.7
20260506072504 56 260 4.0 11.0 0.00 1.00 0.08 82 1003.6
20260506072404 56 257 4.0 11.0 0.00 1.00 0.08 81 1003.5
20260506072306 56 258 5.0 11.0 0.00 1.00 0.08 82 1003.7
20260506072204 56 257 5.0 21.0 0.00 1.00 0.08 82 1003.6
20260506072004 56 245 6.0 21.0 0.00 1.00 0.08 81 1003.6
20260506071904 56 239 6.0 21.0 0.00 1.00 0.08 82 1003.5
20260506071804 56 239 6.0 21.0 0.00 1.00 0.08 82 1003.6
20260506071704 56 235 6.0 21.0 0.00 1.00 0.08 82 1003.3
20260506071605 56 232 6.0 21.0 0.00 1.00 0.08 81 1003.6
20260506071512 56 229 6.0 21.0 0.00 1.00 0.08 82 1003.6
20260506071504 56 228 6.0 21.0 0.00 1.00 0.08 82 1003.6
20260506071404 56 226 6.0 21.0 0.00 1.00 0.08 81 1003.5
20260506071204 56 215 6.0 17.0 0.00 1.00 0.08 82 1003.6
20260506071104 56 214 5.0 16.0 0.00 1.00 0.08 82 1003.8
20260506071004 56 213 5.0 16.0 0.00 1.00 0.08 82 1003.8
20260506070905 56 213 5.0 16.0 0.00 1.00 0.08 83 1003.6
20260506070805 56 211 5.0 15.0 0.00 1.00 0.08 83 1003.8
20260506070704 56 221 5.0 15.0 0.00 1.00 0.08 83 1003.5
20260506070604 56 224 5.0 15.0 0.00 1.00 0.08 83 1003.7
20260506070504 56 223 4.0 11.0 0.00 1.00 0.08 83 1003.6
20260506070404 56 222 4.0 11.0 0.00 1.00 0.08 83 1003.7
20260506070305 56 222 4.0 11.0 0.00 1.00 0.08 83 1003.8
20260506070206 56 224 3.0 11.0 0.00 1.00 0.08 83 1003.7
20260506070105 56 225 3.0 11.0 0.00 1.00 0.08 83 1003.8
20260506062504 55 249 4.0 13.0 0.00 1.00 0.08 85 1003.7
20260506062306 55 256 3.0 13.0 0.00 1.00 0.08 85 1003.6
20260506062205 55 253 3.0 13.0 0.00 1.00 0.08 86 1003.7
20260506062104 55 248 3.0 13.0 0.00 1.00 0.08 85 1003.7
20260506062004 55 250 3.0 13.0 0.00 1.00 0.08 85 1003.5
20260506061912 55 245 2.0 13.0 0.00 1.00 0.08 86 1003.6
20260506061904 55 242 2.0 13.0 0.00 1.00 0.08 86 1003.6
20260506061804 55 234 2.0 10.0 0.00 1.00 0.08 86 1003.6
20260506061604 55 260 2.0 6.0 0.00 1.00 0.08 87 1003.7
20260506061504 55 256 2.0 6.0 0.00 1.00 0.08 87 1003.6
20260506061404 55 249 2.0 6.0 0.00 1.00 0.08 87 1003.6
20260506061312 55 235 2.0 8.0 0.00 1.00 0.08 87 1003.5
20260506061304 55 231 2.0 8.0 0.00 1.00 0.08 87 1003.5
20260506061205 55 225 2.0 9.0 0.00 1.00 0.08 87 1003.6
20260506061004 55 241 3.0 9.0 0.00 1.00 0.08 87 1003.8
20260506060904 54 250 4.0 9.0 0.00 1.00 0.08 86 1003.5
20260506060804 54 264 4.0 9.0 0.00 1.00 0.08 86 1003.6
20260506060704 54 265 4.0 9.0 0.00 1.00 0.08 86 1003.6
20260506060604 54 259 4.0 9.0 0.00 1.00 0.08 86 1003.5
20260506060504 54 258 4.0 9.0 0.00 1.00 0.08 86 1003.6
20260506060404 54 254 4.0 9.0 0.00 1.00 0.08 86 1003.6
20260506060312 54 254 4.0 9.0 0.00 1.00 0.08 86 1003.5
20260506060304 54 255 4.0 9.0 0.00 1.00 0.08 86 1003.5
20260506060204 54 262 4.0 9.0 0.00 1.00 0.08 86 1003.6
20260506060111 54 265 4.0 9.0 0.00 1.00 0.08 87 1003.5
20260506051404 53 249 5.0 9.0 0.00 1.00 0.08 90 1003.9
20260506051304 53 248 5.0 9.0 0.00 1.00 0.08 90 1003.8
20260506051204 53 248 5.0 9.0 0.00 1.00 0.08 90 1003.7
20260506051104 53 246 5.0 9.0 0.00 1.00 0.08 91 1003.7
20260506050904 53 245 5.0 9.0 0.00 1.00 0.08 91 1003.8
20260506050804 53 244 5.0 8.0 0.00 1.00 0.08 91 1003.7
20260506050604 53 243 5.0 8.0 0.00 1.00 0.08 91 1003.6
20260506050505 53 243 5.0 8.0 0.00 1.00 0.08 91 1003.7
20260506050405 53 240 5.0 8.0 0.00 1.00 0.08 91 1003.8
20260506050311 53 239 5.0 8.0 0.00 1.00 0.08 91 1003.8
20260506050204 53 235 5.0 8.0 0.00 1.00 0.08 91 1003.9
20260506044904 53 228 3.0 8.0 0.00 1.01 0.08 92 1003.7
20260506044804 53 224 3.0 7.0 0.00 1.01 0.08 92 1003.8
20260506044711 53 222 2.0 6.0 0.00 1.01 0.08 92 1003.7
20260506044704 53 221 2.0 6.0 0.00 1.01 0.08 92 1003.7
20260506044611 53 218 2.0 7.0 0.00 1.01 0.08 92 1003.8
20260506044604 53 217 2.0 7.0 0.00 1.01 0.08 92 1003.8
20260506044304 52 207 2.0 7.0 0.00 1.01 0.08 92 1003.7
20260506044204 52 206 2.0 7.0 0.00 1.01 0.08 92 1003.5
20260506044104 52 206 2.0 7.0 0.00 1.01 0.08 92 1003.9
20260506044004 52 205 2.0 7.0 0.00 1.01 0.08 92 1003.7
20260506043904 52 204 2.0 7.0 0.00 1.01 0.08 92 1003.7
20260506043804 52 205 2.0 7.0 0.00 1.01 0.08 92 1003.7
20260506043704 52 206 2.0 7.0 0.00 1.01 0.08 92 1003.7
20260506043612 52 208 2.0 4.0 0.00 1.01 0.08 92 1003.6
20260506043505 52 207 2.0 6.0 0.00 1.01 0.08 92 1003.5
20260506043412 52 206 3.0 6.0 0.00 1.01 0.08 92 1003.7
20260506043304 52 204 2.0 6.0 0.00 1.01 0.08 92 1003.7
20260506043104 52 202 3.0 7.0 0.00 1.01 0.08 92 1003.7
20260506043004 52 204 3.0 7.0 0.00 1.01 0.08 92 1003.6
20260506042905 52 205 3.0 7.0 0.00 1.01 0.08 92 1003.5
20260506042804 52 204 3.0 7.0 0.00 1.01 0.08 92 1003.6
20260506042704 52 202 3.0 7.0 0.00 1.01 0.08 92 1003.7
20260506042612 52 198 3.0 7.0 0.00 1.01 0.08 92 1003.6
20260506042604 52 197 2.0 7.0 0.00 1.01 0.08 92 1003.6
20260506042504 52 196 2.0 7.0 0.00 1.01 0.08 92 1003.3
20260506042305 52 202 2.0 7.0 0.00 1.01 0.08 92 1003.5
20260506042204 52 203 2.0 6.0 0.00 1.01 0.08 92 1003.3
20260506042104 52 206 1.0 4.0 0.00 1.01 0.08 92 1003.6
20260506042004 52 204 1.0 4.0 0.00 1.01 0.08 92 1003.6
20260506041904 52 203 1.0 3.0 0.00 1.01 0.08 92 1003.6
20260506041804 52 201 0.0 3.0 0.00 1.01 0.08 92 1003.5
20260506041704 52 204 0.0 2.0 0.00 1.01 0.08 92 1003.7
20260506041605 52 204 0.0 2.0 0.00 1.01 0.08 92 1003.6
20260506041404 52 196 0.0 2.0 0.00 1.01 0.08 92 1003.6
20260506041304 52 135 0.0 1.0 0.00 1.01 0.08 92 1003.3
20260506041204 52 135 0.0 1.0 0.00 1.01 0.08 92 1003.5
20260506041004 52 135 0.0 1.0 0.00 1.01 0.08 92 1003.5
20260506040904 52 135 0.0 1.0 0.00 1.01 0.08 92 1003.3
20260506040804 52 135 0.0 1.0 0.00 1.01 0.08 92 1003.5
20260506040704 52 135 0.0 1.0 0.00 1.01 0.08 92 1003.3
20260506040604 52 135 0.0 1.0 0.00 1.01 0.08 92 1003.5
20260506040505 52 0 0.0 0.0 0.00 1.01 0.07 92 1003.3
20260506040404 52 0 0.0 0.0 0.00 1.01 0.07 92 1003.5
20260506040311 52 0 0.0 0.0 0.00 1.01 0.07 92 1003.6
20260506040304 52 0 0.0 0.0 0.00 1.01 0.07 92 1003.6
20260506040204 52 0 0.0 0.0 0.00 1.01 0.07 92 1003.3
20260506040006 52 0 0.0 0.0 0.00 1.01 0.07 92 1003.1
20260506035904 52 0 0.0 0.0 0.00 1.01 0.07 92 1003.5
20260506035805 52 0 0.0 0.0 0.00 1.01 0.07 91 1003.5
20260506035704 52 0 0.0 0.0 0.00 1.01 0.07 91 1003.3
20260506035612 52 0 0.0 0.0 0.00 1.01 0.07 91 1003.3
20260506035605 52 0 0.0 0.0 0.00 1.01 0.07 91 1003.3
20260506035505 52 0 0.0 0.0 0.00 1.01 0.07 91 1003.6
20260506035306 52 0 0.0 0.0 0.00 1.01 0.07 91 1003.2
20260506035204 52 0 0.0 0.0 0.00 1.01 0.07 91 1003.5
20260506035105 52 0 0.0 0.0 0.00 1.01 0.07 91 1003.6
20260506035004 52 0 0.0 0.0 0.00 1.01 0.07 92 1003.5
20260506034912 52 0 0.0 0.0 0.00 1.01 0.07 92 1003.6
20260506034905 52 0 0.0 0.0 0.00 1.01 0.07 91 1003.6
20260506034804 52 0 0.0 0.0 0.00 1.01 0.07 91 1003.3
20260506034711 52 0 0.0 0.0 0.00 1.01 0.07 92 1003.6
20260506034604 52 0 0.0 0.0 0.00 1.01 0.07 91 1003.6
20260506034512 52 0 0.0 0.0 0.00 1.01 0.07 92 1003.5
20260506034404 52 0 0.0 0.0 0.00 1.01 0.07 91 1003.5
20260506034204 52 0 0.0 0.0 0.00 1.01 0.07 91 1003.6
20260506034104 52 0 0.0 0.0 0.00 1.01 0.07 91 1003.3
20260506034005 52 0 0.0 0.0 0.00 1.01 0.07 91 1003.6
20260506033804 52 0 0.0 0.0 0.00 1.01 0.07 91 1003.5
20260506033704 52 0 0.0 0.0 0.00 1.01 0.07 91 1003.3
20260506033604 52 0 0.0 0.0 0.00 1.01 0.07 91 1003.5
20260506033304 52 0 0.0 0.0 0.00 1.01 0.07 91 1003.6
20260506033204 52 0 0.0 0.0 0.00 1.01 0.07 91 1003.6
20260506033104 52 0 0.0 0.0 0.00 1.01 0.07 91 1003.5
20260506032904 52 0 0.0 0.0 0.00 1.01 0.07 91 1003.6
20260506032804 52 0 0.0 0.0 0.00 1.01 0.07 91 1003.6
20260506032705 52 0 0.0 0.0 0.00 1.01 0.07 91 1003.5
20260506032605 52 0 0.0 0.0 0.00 1.01 0.07 91 1003.5
20260506032505 52 0 0.0 0.0 0.00 1.01 0.07 91 1003.6
20260506032404 52 0 0.0 0.0 0.00 1.01 0.07 91 1003.6
20260506032306 52 0 0.0 0.0 0.00 1.01 0.07 91 1003.6
20260506032204 52 0 0.0 0.0 0.00 1.01 0.07 91 1003.6
20260506032105 52 0 0.0 0.0 0.00 1.01 0.07 91 1003.7
20260506032006 52 0 0.0 0.0 0.00 1.01 0.07 91 1003.8
20260506031905 52 0 0.0 0.0 0.00 1.02 0.07 91 1003.7
20260506031804 52 0 0.0 0.0 0.00 1.02 0.07 91 1003.6
20260506031705 52 0 0.0 0.0 0.00 1.02 0.07 91 1003.8
20260506031605 52 0 0.0 0.0 0.00 1.02 0.07 91 1003.6
20260506031504 52 0 0.0 0.0 0.00 1.02 0.07 91 1003.7
20260506031405 52 0 0.0 0.0 0.00 1.02 0.07 91 1003.7
20260506031305 52 0 0.0 0.0 0.00 1.02 0.07 91 1003.3
20260506031205 52 0 0.0 0.0 0.00 1.02 0.07 92 1003.6
20260506031104 52 0 0.0 0.0 0.00 1.02 0.07 91 1003.3
20260506030904 52 0 0.0 0.0 0.00 1.02 0.07 92 1003.6
20260506030804 52 0 0.0 0.0 0.00 1.02 0.07 92 1003.8
20260506030604 52 0 0.0 0.0 0.00 1.02 0.07 92 1003.6
20260506030506 52 0 0.0 0.0 0.00 1.02 0.07 92 1003.8
20260506030405 52 0 0.0 0.0 0.00 1.02 0.07 92 1003.7
20260506030304 52 0 0.0 0.0 0.00 1.02 0.07 92 1003.7
20260506030204 52 0 0.0 0.0 0.00 1.02 0.07 92 1003.7
20260506030105 52 0 0.0 0.0 0.00 1.02 0.07 92 1003.8
20260506025904 52 0 0.0 0.0 0.00 1.02 0.07 92 1003.8
20260506025804 52 0 0.0 0.0 0.00 1.02 0.07 92 1003.7
20260506025704 52 0 0.0 0.0 0.00 1.02 0.07 92 1003.7
20260506025604 52 0 0.0 0.0 0.00 1.02 0.07 92 1003.8
20260506025504 52 0 0.0 0.0 0.00 1.02 0.07 92 1003.9
20260506025305 52 0 0.0 0.0 0.00 1.02 0.07 92 1003.7
20260506025204 52 0 0.0 0.0 0.00 1.02 0.07 92 1003.8
20260506025104 52 0 0.0 0.0 0.00 1.02 0.07 92 1003.6
20260506025004 52 0 0.0 0.0 0.00 1.02 0.07 92 1003.9
20260506024904 52 0 0.0 0.0 0.00 1.02 0.07 92 1003.8
20260506024804 52 0 0.0 0.0 0.00 1.02 0.07 92 1003.7
20260506024704 52 0 0.0 0.0 0.00 1.02 0.07 92 1003.7
20260506024604 52 0 0.0 0.0 0.00 1.02 0.07 92 1003.8
20260506024504 52 0 0.0 0.0 0.00 1.02 0.07 92 1003.8
20260506024404 52 0 0.0 0.0 0.00 1.02 0.07 92 1003.9
20260506024304 52 0 0.0 0.0 0.00 1.02 0.07 92 1004.1
20260506024204 52 0 0.0 0.0 0.00 1.02 0.07 92 1003.9
20260506024104 52 0 0.0 0.0 0.00 1.02 0.07 92 1004.0
20260506024004 52 0 0.0 0.0 0.00 1.02 0.07 92 1003.9
20260506023904 52 0 0.0 0.0 0.00 1.02 0.07 92 1004.1
20260506023804 52 0 0.0 0.0 0.00 1.02 0.07 92 1004.0
20260506023704 52 0 0.0 0.0 0.00 1.02 0.07 92 1003.9
20260506023604 52 0 0.0 0.0 0.00 1.02 0.07 92 1003.9
20260506023504 52 0 0.0 0.0 0.00 1.02 0.07 92 1004.2
20260506023404 52 0 0.0 0.0 0.00 1.02 0.07 92 1004.0
20260506023304 52 0 0.0 0.0 0.00 1.02 0.07 92 1003.9
20260506023104 52 0 0.0 0.0 0.00 1.02 0.07 92 1004.1
20260506023005 52 0 0.0 0.0 0.00 1.03 0.07 92 1004.0
20260506022904 52 0 0.0 0.0 0.00 1.03 0.07 92 1004.2
20260506022804 52 0 0.0 0.0 0.00 1.03 0.07 92 1004.0
20260506022704 52 0 0.0 0.0 0.00 1.03 0.07 92 1004.2
20260506022604 52 0 0.0 0.0 0.00 1.03 0.07 92 1004.0
20260506022404 52 0 0.0 0.0 0.00 1.03 0.07 92 1003.9
20260506022306 52 0 0.0 0.0 0.00 1.03 0.07 92 1004.0
20260506022204 52 0 0.0 0.0 0.00 1.03 0.07 92 1004.0
20260506022104 52 0 0.0 0.0 0.00 1.03 0.07 92 1004.0
20260506022005 52 0 0.0 0.0 0.00 1.03 0.07 92 1004.1
20260506021904 52 0 0.0 0.0 0.00 1.03 0.07 92 1004.0
20260506021813 52 0 0.0 0.0 0.00 1.03 0.07 92 1004.0
20260506021704 52 0 0.0 0.0 0.00 1.03 0.07 92 1004.2
20260506021612 52 0 0.0 0.0 0.00 1.03 0.07 92 1004.0
20260506021504 52 0 0.0 0.0 0.00 1.03 0.07 92 1004.1
20260506021204 52 266 0.0 2.0 0.00 1.03 0.07 92 1004.1
20260506021104 52 260 0.0 2.0 0.00 1.03 0.07 92 1004.1
20260506021004 52 256 0.0 2.0 0.00 1.03 0.07 92 1004.0
20260506020813 52 250 1.0 2.0 0.00 1.03 0.07 92 1004.3
20260506020804 52 249 1.0 2.0 0.00 1.03 0.07 92 1004.3
20260506020704 52 243 1.0 3.0 0.00 1.03 0.07 92 1004.1
20260506020504 52 241 1.0 3.0 0.00 1.03 0.07 92 1004.2
20260506020404 52 239 1.0 3.0 0.00 1.03 0.07 92 1004.1
20260506020304 52 235 1.0 3.0 0.00 1.03 0.07 92 1004.1
20260506020204 52 230 1.0 3.0 0.00 1.03 0.07 92 1004.2
20260506020104 52 231 1.0 4.0 0.00 1.03 0.07 92 1004.3
20260506020005 52 232 1.0 4.0 0.00 1.03 0.07 92 1004.2
20260506015904 52 231 1.0 4.0 0.00 1.03 0.07 92 1004.1
20260506015804 52 233 1.0 4.0 0.00 1.03 0.07 92 1004.1
20260506015604 52 238 1.0 4.0 0.00 1.03 0.07 92 1004.0
20260506015505 52 239 1.0 4.0 0.00 1.03 0.07 92 1004.2
20260506015404 52 241 1.0 4.0 0.00 1.03 0.07 92 1004.0
20260506015311 52 244 1.0 4.0 0.00 1.03 0.07 92 1004.0
20260506015306 52 245 1.0 4.0 0.00 1.03 0.07 92 1004.0
20260506015204 52 250 1.0 4.0 0.00 1.03 0.07 92 1004.0
20260506015111 52 253 1.0 4.0 0.00 1.03 0.07 92 1004.2
20260506015004 52 250 0.0 4.0 0.00 1.03 0.07 92 1004.0
20260506014704 52 257 0.0 3.0 0.00 1.03 0.07 92 1004.1
20260506014604 52 256 0.0 3.0 0.00 1.03 0.07 92 1004.1
20260506014504 52 256 0.0 3.0 0.00 1.03 0.07 92 1004.1
20260506014404 52 256 0.0 3.0 0.00 1.03 0.07 92 1004.2
20260506014304 52 256 0.0 3.0 0.00 1.03 0.07 92 1004.1
20260506014204 52 256 0.0 3.0 0.00 1.03 0.07 92 1004.1
20260506014105 52 253 0.0 3.0 0.00 1.03 0.07 92 1004.3
20260506014004 52 0 0.0 0.0 0.00 1.03 0.07 92 1004.0
20260506013904 52 0 0.0 0.0 0.00 1.03 0.07 92 1004.1
20260506013804 52 0 0.0 0.0 0.00 1.03 0.07 92 1004.2
20260506013704 52 0 0.0 0.0 0.00 1.03 0.07 92 1004.2
20260506013404 52 0 0.0 0.0 0.00 1.03 0.07 92 1004.1
20260506013304 52 176 0.0 1.0 0.00 1.03 0.07 92 1004.2
20260506013204 52 176 0.0 1.0 0.00 1.03 0.07 92 1004.1
20260506013104 52 176 0.0 1.0 0.00 1.03 0.07 92 1004.4
20260506013004 52 188 0.0 1.0 0.00 1.03 0.07 92 1004.3
20260506012904 52 189 0.0 1.0 0.00 1.03 0.07 92 1004.3
20260506012804 52 189 0.0 1.0 0.00 1.03 0.07 92 1004.2
20260506012505 52 189 0.0 1.0 0.00 1.03 0.07 92 1004.4
20260506012404 52 189 0.0 1.0 0.00 1.03 0.07 92 1004.4
20260506012307 52 192 0.0 1.0 0.00 1.03 0.07 92 1004.3
20260506012204 52 199 0.0 1.0 0.00 1.03 0.07 92 1004.2
20260506012106 52 199 0.0 1.0 0.00 1.03 0.07 92 1004.4
20260506012005 52 197 0.0 1.0 0.00 1.03 0.07 92 1004.2
20260506011904 52 0 0.0 0.0 0.00 1.03 0.07 92 1004.3
20260506011808 52 0 0.0 0.0 0.00 1.03 0.07 92 1004.3
20260506011605 52 0 0.0 0.0 0.00 1.03 0.07 92 1004.3
20260506011506 52 0 0.0 0.0 0.00 1.03 0.07 92 1004.3
20260506011405 52 0 0.0 0.0 0.00 1.03 0.07 92 1004.4
20260506011306 52 0 0.0 0.0 0.00 1.03 0.07 92 1004.5
20260506011205 52 0 0.0 0.0 0.00 1.03 0.07 92 1004.3
20260506011107 52 0 0.0 0.0 0.00 1.03 0.07 92 1004.5
20260506011010 52 0 0.0 0.0 0.00 1.03 0.07 92 1004.4
20260506010912 52 0 0.0 0.0 0.00 1.03 0.07 92 1004.4
20260506010805 52 0 0.0 0.0 0.00 1.03 0.07 92 1004.4
20260506010605 52 0 0.0 0.0 0.00 1.03 0.07 92 1004.2
20260506010505 52 0 0.0 0.0 0.00 1.03 0.07 92 1004.3
20260506010405 52 0 0.0 0.0 0.00 1.03 0.07 92 1004.3
20260506010305 52 0 0.0 0.0 0.00 1.03 0.07 92 1004.4
20260506010204 52 0 0.0 0.0 0.00 1.03 0.07 92 1004.6
20260506010105 52 0 0.0 0.0 0.00 1.03 0.07 92 1004.3
20260506005904 52 0 0.0 0.0 0.00 1.03 0.07 92 1004.4
20260506005804 52 0 0.0 0.0 0.00 1.03 0.07 92 1004.5
20260506005704 52 0 0.0 0.0 0.00 1.03 0.07 92 1004.3
20260506005604 52 0 0.0 0.0 0.00 1.03 0.07 92 1004.4
20260506005504 52 0 0.0 0.0 0.00 1.03 0.07 92 1004.4
20260506005404 52 0 0.0 0.0 0.00 1.03 0.07 92 1004.3
20260506005204 52 0 0.0 0.0 0.00 1.03 0.07 92 1004.4
20260506005104 52 0 0.0 0.0 0.00 1.03 0.07 92 1004.2
20260506005004 52 0 0.0 0.0 0.00 1.03 0.07 92 1004.3
20260506004904 52 0 0.0 0.0 0.00 1.03 0.07 92 1004.3
20260506004804 52 0 0.0 0.0 0.00 1.03 0.07 92 1004.3
20260506004604 52 297 0.0 2.0 0.00 1.03 0.07 92 1004.3
20260506004504 52 309 0.0 3.0 0.00 1.03 0.07 92 1004.4
20260506004404 52 308 0.0 3.0 0.00 1.03 0.07 92 1004.3
20260506004304 52 303 1.0 3.0 0.00 1.03 0.07 92 1004.3
20260506004204 52 300 1.0 3.0 0.00 1.03 0.07 92 1004.4
20260506004104 52 297 1.0 3.0 0.00 1.03 0.07 92 1004.4
20260506004004 52 296 1.0 3.0 0.00 1.03 0.07 92 1004.4
20260506003804 52 282 1.0 3.0 0.00 1.03 0.07 92 1004.5
20260506003704 52 278 1.0 3.0 0.00 1.03 0.07 92 1004.4
20260506003504 52 266 1.0 3.0 0.00 1.03 0.07 92 1004.3
20260506003404 52 265 1.0 3.0 0.00 1.03 0.07 92 1004.5
20260506003304 52 264 1.0 3.0 0.00 1.03 0.07 92 1004.4
20260506003211 52 263 1.0 3.0 0.00 1.02 0.07 92 1004.5
20260506003204 52 262 1.0 3.0 0.00 1.02 0.07 92 1004.5
20260506003104 52 263 1.0 3.0 0.00 1.02 0.07 92 1004.5
20260506002904 52 261 1.0 3.0 0.00 1.02 0.07 92 1004.4
20260506002804 52 267 1.0 3.0 0.00 1.02 0.07 92 1004.2
20260506002704 52 265 1.0 3.0 0.00 1.02 0.07 92 1004.4
20260506002611 52 264 2.0 3.0 0.00 1.02 0.07 92 1004.3
20260506002604 52 265 2.0 3.0 0.00 1.02 0.07 92 1004.3
20260506002504 52 263 2.0 6.0 0.00 1.02 0.07 92 1004.3
20260506002306 52 258 2.0 7.0 0.00 1.02 0.07 92 1004.4
20260506002204 52 255 3.0 7.0 0.00 1.02 0.07 92 1004.4
20260506002104 52 251 3.0 7.0 0.00 1.02 0.07 92 1004.3
20260506001904 52 246 3.0 8.0 0.00 1.02 0.07 92 1004.3
20260506001804 52 246 3.0 8.0 0.00 1.02 0.07 92 1004.4
20260506001704 52 248 3.0 8.0 0.00 1.02 0.07 92 1004.6
20260506001604 52 248 3.0 8.0 0.00 1.02 0.07 92 1004.4
20260506001511 52 250 3.0 8.0 0.00 1.02 0.07 92 1004.6
20260506001404 52 251 3.0 8.0 0.00 1.02 0.07 92 1004.3
20260506001211 52 254 2.0 8.0 0.01 1.02 0.07 92 1004.4
20260506001104 52 258 2.0 8.0 0.01 1.02 0.07 92 1004.5
20260506000904 52 281 1.0 6.0 0.01 1.02 0.07 92 1004.4
20260506000804 52 288 1.0 3.0 0.01 1.02 0.07 92 1004.5
20260506000704 52 293 1.0 3.0 0.01 1.02 0.07 92 1004.5
20260506000604 52 298 1.0 3.0 0.01 1.02 0.07 92 1004.4
20260506000504 52 300 1.0 3.0 0.01 1.02 0.07 92 1004.3
20260506000404 52 300 1.0 3.0 0.01 1.02 0.07 92 1004.5
20260506000304 52 304 1.0 3.0 0.01 1.02 0.07 92 1004.6
20260506000205 52 306 1.0 3.0 0.01 1.02 0.07 92 1004.5
20260506000104 52 306 1.0 3.0 0.01 1.02 0.07 92 1004.4
20260505235904 52 309 1.0 4.0 0.01 1.02 0.07 92 1004.6
20260505235804 52 311 1.0 4.0 0.01 1.02 0.07 92 1004.6
20260505235604 52 312 1.0 4.0 0.01 1.02 0.07 92 1004.7
20260505235504 52 314 1.0 4.0 0.01 1.02 0.07 92 1004.7
20260505235404 52 315 1.0 4.0 0.01 1.02 0.07 92 1004.7
20260505235305 52 314 1.0 4.0 0.01 1.02 0.07 92 1004.7
20260505235204 52 311 0.0 4.0 0.01 1.02 0.07 92 1004.6
20260505235104 52 312 0.0 4.0 0.01 1.02 0.07 92 1004.8
20260505235004 52 0 0.0 0.0 0.01 1.02 0.07 92 1004.7
20260505234904 52 0 0.0 0.0 0.02 1.02 0.07 92 1004.6
20260505234804 52 0 0.0 0.0 0.02 1.02 0.07 92 1004.6
20260505234704 52 0 0.0 0.0 0.02 1.02 0.07 92 1004.7
20260505234604 52 0 0.0 0.0 0.02 1.02 0.07 92 1004.5
20260505234504 52 0 0.0 0.0 0.02 1.02 0.07 92 1004.6
20260505234404 52 0 0.0 0.0 0.02 1.02 0.07 92 1004.8
20260505234311 52 0 0.0 0.0 0.02 1.02 0.07 92 1004.7
20260505234204 52 0 0.0 0.0 0.02 1.02 0.07 92 1004.8
20260505234004 52 354 0.0 2.0 0.03 1.02 0.07 92 1005.0
20260505233904 52 354 0.0 2.0 0.03 1.02 0.07 92 1004.7
20260505233804 52 354 0.0 2.0 0.03 1.02 0.07 92 1004.9
20260505233704 52 354 0.0 2.0 0.03 1.02 0.07 92 1004.8
20260505233604 52 354 0.0 2.0 0.03 1.02 0.07 92 1004.6
20260505233504 52 354 0.0 2.0 0.03 1.02 0.07 92 1004.9
20260505233404 52 354 0.0 2.0 0.03 1.02 0.07 92 1004.7
20260505233304 52 354 0.0 2.0 0.04 1.02 0.07 92 1004.8
20260505233204 52 354 0.0 2.0 0.04 1.02 0.07 92 1004.8
20260505233104 52 330 0.0 2.0 0.04 1.02 0.07 92 1004.9
20260505233004 52 304 0.0 2.0 0.04 1.02 0.07 92 1004.7
20260505232904 52 303 0.0 2.0 0.04 1.02 0.07 92 1004.8
20260505232804 52 304 0.0 2.0 0.04 1.02 0.07 92 1004.9
20260505232704 52 304 0.0 2.0 0.04 1.02 0.07 92 1004.8
20260505232611 52 306 0.0 2.0 0.04 1.02 0.07 92 1004.7
20260505232504 52 304 1.0 3.0 0.04 1.02 0.07 92 1004.8
20260505232305 52 309 1.0 3.0 0.04 1.02 0.07 92 1004.8
20260505232204 52 310 1.0 3.0 0.04 1.02 0.07 92 1004.8
20260505232104 52 311 1.0 3.0 0.04 1.02 0.07 92 1004.8
20260505232005 52 310 1.0 3.0 0.04 1.02 0.07 92 1004.9
20260505231904 52 308 1.0 4.0 0.04 1.02 0.07 92 1004.9
20260505231804 52 307 1.0 4.0 0.04 1.02 0.07 92 1004.7
20260505231704 52 305 2.0 4.0 0.04 1.02 0.07 92 1004.9
20260505231604 52 300 2.0 4.0 0.04 1.02 0.07 92 1004.8
20260505231404 52 291 2.0 4.0 0.04 1.02 0.07 92 1004.7
20260505231304 52 288 2.0 6.0 0.05 1.02 0.07 92 1004.7
20260505231104 52 278 2.0 6.0 0.04 1.02 0.06 92 1004.8
20260505231004 52 277 2.0 6.0 0.05 1.02 0.06 92 1004.9
20260505230904 52 275 2.0 6.0 0.05 1.02 0.06 92 1004.9
20260505230704 52 282 2.0 6.0 0.05 1.01 0.06 92 1004.9
20260505230604 52 285 2.0 6.0 0.05 1.01 0.06 92 1005.0
20260505230504 52 291 2.0 6.0 0.05 1.01 0.06 92 1005.0
20260505230404 52 293 2.0 6.0 0.05 1.01 0.06 92 1005.0
20260505230304 52 295 2.0 6.0 0.05 1.01 0.06 92 1004.9
20260505230204 52 300 2.0 6.0 0.06 1.01 0.06 92 1005.0
20260505230104 52 304 2.0 6.0 0.06 1.01 0.06 92 1004.9
20260505230004 52 308 3.0 6.0 0.06 1.01 0.06 92 1005.2
20260505225904 52 311 3.0 6.0 0.06 1.01 0.06 92 1005.0
20260505225804 52 313 3.0 6.0 0.06 1.01 0.06 92 1004.9
20260505225704 52 314 3.0 6.0 0.06 1.01 0.06 92 1004.6
20260505225604 52 316 3.0 6.0 0.07 1.01 0.06 92 1004.8
20260505225504 52 319 3.0 6.0 0.07 1.01 0.06 92 1004.9
20260505225306 52 323 3.0 6.0 0.07 1.01 0.06 92 1005.0
20260505225204 52 326 4.0 6.0 0.08 1.01 0.06 92 1004.8
20260505225104 52 326 4.0 6.0 0.08 1.01 0.06 92 1005.0
20260505225004 52 327 4.0 6.0 0.09 1.01 0.06 92 1004.8
20260505224904 52 328 4.0 6.0 0.09 1.01 0.06 92 1005.0
20260505224804 52 329 4.0 6.0 0.09 1.01 0.06 92 1004.9
20260505224704 52 328 4.0 6.0 0.09 1.01 0.06 92 1005.0
20260505224604 52 327 4.0 6.0 0.10 1.01 0.06 92 1005.0
20260505224504 52 325 4.0 6.0 0.09 1.00 0.05 92 1004.9
20260505224404 52 324 4.0 6.0 0.10 1.00 0.05 92 1004.8
20260505224304 52 325 4.0 7.0 0.10 1.00 0.05 92 1004.9
20260505224204 52 324 4.0 7.0 0.10 1.00 0.05 92 1004.9
20260505224105 52 325 4.0 7.0 0.10 1.00 0.05 92 1004.9
20260505224004 52 326 4.0 7.0 0.10 1.00 0.04 92 1004.8
20260505223904 52 326 4.0 7.0 0.11 1.00 0.04 92 1004.8
20260505223804 52 326 3.0 7.0 0.11 1.00 0.04 92 1005.0
20260505223605 53 327 3.0 7.0 0.12 0.99 0.04 92 1004.9
20260505223505 53 327 3.0 7.0 0.13 0.99 0.04 92 1004.9
20260505223404 53 327 3.0 7.0 0.13 0.99 0.04 92 1005.0
20260505223304 53 326 3.0 7.0 0.15 0.99 0.04 92 1004.7
20260505223204 53 325 3.0 7.0 0.15 0.99 0.04 92 1004.9
20260505223104 53 321 3.0 4.0 0.16 0.99 0.04 92 1004.9
20260505223004 53 319 3.0 4.0 0.16 0.98 0.03 92 1005.0
20260505222904 53 318 3.0 4.0 0.17 0.98 0.03 92 1005.0
20260505222804 53 315 3.0 4.0 0.18 0.98 0.03 92 1004.9
20260505222704 53 313 3.0 4.0 0.18 0.98 0.03 92 1005.0
20260505222604 53 310 3.0 4.0 0.19 0.99 0.03 92 1005.1
20260505222504 53 308 3.0 4.0 0.20 0.99 0.03 92 1005.1
20260505222411 53 306 3.0 4.0 0.20 0.99 0.03 92 1004.9
20260505222404 53 305 3.0 4.0 0.20 0.99 0.03 92 1004.9
20260505222306 53 303 2.0 4.0 0.20 0.98 0.03 92 1005.0
20260505222104 53 302 2.0 4.0 0.21 0.98 0.03 92 1005.1
20260505222004 53 301 2.0 4.0 0.22 0.98 0.03 92 1005.1
20260505221804 53 299 2.0 4.0 0.22 0.98 0.02 92 1004.9
20260505221705 53 301 2.0 3.0 0.22 0.98 0.02 92 1005.2
20260505221604 53 304 2.0 3.0 0.22 0.98 0.02 92 1004.9
20260505221404 53 312 2.0 3.0 0.24 0.98 0.02 91 1005.0
20260505221311 53 316 2.0 3.0 0.24 0.98 0.02 91 1005.1
20260505221304 53 317 2.0 3.0 0.24 0.98 0.02 92 1005.1
20260505221204 53 323 1.0 3.0 0.25 0.98 0.02 92 1005.3
20260505221004 53 340 1.0 3.0 0.26 0.97 0.02 91 1005.1
20260505220904 53 351 2.0 4.0 0.26 0.97 0.02 92 1005.3
20260505220804 53 1 2.0 4.0 0.27 0.97 0.02 92 1005.2
20260505220704 53 7 2.0 4.0 0.28 0.97 0.01 91 1005.3
20260505220604 53 10 2.0 4.0 0.28 0.97 0.01 91 1005.2
20260505220504 53 6 2.0 4.0 0.28 0.96 0.01 91 1005.2
20260505220411 53 4 2.0 4.0 0.28 0.96 0.01 91 1005.2
20260505220404 53 4 3.0 4.0 0.28 0.96 0.01 91 1005.2
20260505220313 53 2 3.0 4.0 0.28 0.96 0.01 92 1005.0
20260505220229 53 359 3.0 4.0 0.29 0.96 0.00 92 1005.2
20260505215904 53 347 3.0 4.0 0.29 0.95 0.95 91 1005.0
20260505215804 53 340 3.0 4.0 0.30 0.95 0.95 91 1005.4
20260505215704 53 335 3.0 4.0 0.31 0.95 0.95 91 1005.2
20260505215604 53 333 2.0 4.0 0.31 0.95 0.95 91 1005.3
20260505215504 53 329 2.0 4.0 0.31 0.94 0.94 91 1005.3
20260505215405 53 324 2.0 4.0 0.31 0.94 0.94 91 1005.3
20260505215305 53 320 2.0 4.0 0.32 0.94 0.94 91 1005.2
20260505215204 53 318 2.0 3.0 0.32 0.94 0.94 91 1005.0
20260505215104 53 318 2.0 3.0 0.33 0.94 0.94 91 1005.4
20260505215005 53 316 2.0 3.0 0.32 0.93 0.93 91 1005.3
20260505214904 53 319 2.0 3.0 0.33 0.93 0.93 91 1005.4
20260505214804 53 323 2.0 3.0 0.33 0.92 0.92 91 1005.4
20260505214704 53 325 2.0 3.0 0.33 0.92 0.92 91 1005.2
20260505214505 53 337 2.0 4.0 0.34 0.91 0.91 91 1005.2
20260505214404 53 348 2.0 4.0 0.34 0.91 0.91 91 1005.2
20260505214305 53 360 3.0 7.0 0.35 0.91 0.91 91 1005.2
20260505214204 53 8 3.0 7.0 0.35 0.91 0.91 91 1005.3
20260505214104 53 13 3.0 7.0 0.35 0.90 0.90 91 1005.2
20260505214004 53 19 3.0 7.0 0.35 0.90 0.90 91 1005.2
20260505213911 53 20 4.0 7.0 0.35 0.89 0.89 91 1005.3
20260505213904 53 21 4.0 7.0 0.35 0.89 0.89 91 1005.3
20260505213804 53 23 4.0 7.0 0.34 0.89 0.89 91 1005.3
20260505213604 54 24 4.0 7.0 0.34 0.88 0.88 91 1005.5
20260505213504 54 23 4.0 7.0 0.34 0.87 0.87 91 1005.3
20260505213404 54 22 4.0 7.0 0.33 0.86 0.86 91 1005.4
20260505213304 54 21 4.0 7.0 0.32 0.85 0.85 91 1005.4
20260505213104 54 20 4.0 7.0 0.32 0.83 0.83 91 1005.4
20260505213004 54 13 4.0 7.0 0.32 0.83 0.83 91 1005.3
20260505212904 54 9 4.0 7.0 0.31 0.82 0.82 91 1005.5
20260505212805 54 7 4.0 7.0 0.30 0.81 0.81 90 1005.6
20260505212704 54 8 4.0 7.0 0.31 0.81 0.81 90 1005.5
20260505212404 54 7 3.0 8.0 0.30 0.78 0.78 90 1005.4
20260505212306 54 360 3.0 8.0 0.30 0.78 0.78 90 1005.4
20260505212204 54 348 3.0 8.0 0.30 0.78 0.78 90 1005.5
20260505212104 54 336 2.0 8.0 0.31 0.77 0.77 90 1005.5
20260505212011 55 341 2.0 8.0 0.30 0.76 0.76 90 1005.5
20260505212005 55 343 2.0 8.0 0.30 0.76 0.76 90 1005.5
20260505211904 55 328 2.0 8.0 0.31 0.76 0.76 90 1005.5
20260505211704 55 221 1.0 8.0 0.33 0.76 0.76 90 1005.5
20260505211604 55 218 1.0 6.0 0.33 0.76 0.76 90 1005.3
20260505211404 55 214 1.0 6.0 0.34 0.74 0.74 90 1005.4
20260505211306 55 204 1.0 3.0 0.34 0.74 0.74 90 1005.5
20260505211205 55 198 0.0 3.0 0.33 0.72 0.72 90 1005.6
20260505211105 55 194 0.0 3.0 0.33 0.72 0.72 90 1005.4
20260505211005 55 186 0.0 3.0 0.33 0.71 0.71 90 1005.4
20260505210904 55 48 0.0 1.0 0.33 0.71 0.71 90 1005.3
20260505210805 55 48 0.0 1.0 0.35 0.70 0.70 90 1005.4
20260505210704 55 48 0.0 1.0 0.34 0.69 0.69 90 1005.5
20260505210604 55 48 0.0 1.0 0.34 0.69 0.69 90 1005.5
20260505210505 55 48 0.0 1.0 0.34 0.69 0.69 90 1005.2
20260505210404 55 48 0.0 1.0 0.35 0.68 0.68 90 1005.3
20260505210305 55 48 0.0 1.0 0.36 0.68 0.68 90 1005.2
20260505210204 55 48 0.0 1.0 0.36 0.67 0.67 90 1005.3
20260505210006 55 48 0.0 1.0 0.36 0.67 0.67 90 1005.5
20260505205905 55 0 0.0 0.0 0.36 0.66 0.66 90 1005.3
20260505205804 55 0 0.0 0.0 0.35 0.65 0.65 90 1005.6
20260505205704 55 12 0.0 1.0 0.35 0.65 0.65 90 1005.4
20260505205604 55 13 0.0 2.0 0.35 0.64 0.64 90 1005.2
20260505205505 55 17 0.0 2.0 0.35 0.63 0.63 90 1005.4
20260505205305 55 34 1.0 4.0 0.35 0.62 0.62 90 1005.3
20260505205204 55 34 1.0 4.0 0.35 0.61 0.61 90 1005.4
20260505205104 55 34 1.0 4.0 0.35 0.61 0.61 90 1005.4
20260505205007 55 34 1.0 4.0 0.35 0.61 0.61 89 1005.4
20260505204904 55 36 1.0 4.0 0.35 0.60 0.61 89 1005.4
20260505204811 55 39 1.0 4.0 0.35 0.59 0.60 89 1005.4
20260505204805 55 39 1.0 4.0 0.35 0.59 0.59 89 1005.4
20260505204705 55 42 1.0 4.0 0.35 0.59 0.59 89 1005.5
20260505204511 55 42 1.0 4.0 0.34 0.57 0.58 90 1005.4
20260505204404 55 43 1.0 4.0 0.34 0.57 0.57 89 1005.4
20260505204312 56 44 1.0 3.0 0.33 0.56 0.56 89 1005.4
20260505204204 56 42 1.0 3.0 0.33 0.56 0.56 89 1005.3
20260505204112 56 39 2.0 3.0 0.33 0.56 0.56 89 1005.5
20260505204011 56 37 2.0 3.0 0.33 0.55 0.55 89 1005.3
20260505204007 56 36 2.0 3.0 0.33 0.55 0.55 89 1005.3
20260505203914 56 34 2.0 4.0 0.33 0.55 0.55 89 1005.1
20260505203604 56 29 2.0 4.0 0.33 0.54 0.54 89 1005.3
20260505203505 56 29 2.0 4.0 0.33 0.53 0.53 89 1005.4
20260505203404 56 27 2.0 4.0 0.33 0.53 0.53 89 1005.4
20260505203304 56 25 2.0 4.0 0.33 0.52 0.52 89 1005.3
20260505203204 56 24 2.0 4.0 0.33 0.52 0.52 89 1005.5
20260505203104 56 26 1.0 4.0 0.33 0.52 0.52 89 1005.1
20260505203005 56 27 1.0 4.0 0.33 0.51 0.51 89 1005.1
20260505202904 56 29 1.0 4.0 0.33 0.51 0.51 89 1005.3
20260505202804 56 24 1.0 4.0 0.33 0.51 0.51 89 1005.2
20260505202704 56 360 0.0 3.0 0.33 0.50 0.50 89 1005.2
20260505202606 56 327 0.0 2.0 0.33 0.50 0.50 89 1005.2
20260505202404 56 0 0.0 0.0 0.33 0.49 0.49 89 1005.1
20260505202306 56 0 0.0 0.0 0.33 0.48 0.48 89 1005.2
20260505202204 56 0 0.0 0.0 0.32 0.47 0.48 89 1005.2
20260505202104 57 0 0.0 0.0 0.32 0.46 0.46 89 1005.2
20260505202005 57 0 0.0 0.0 0.31 0.46 0.46 89 1005.5
20260505201904 57 0 0.0 0.0 0.31 0.45 0.45 89 1005.3
20260505201804 57 0 0.0 0.0 0.30 0.44 0.44 89 1005.2
20260505201712 57 0 0.0 0.0 0.29 0.43 0.44 89 1005.3
20260505201704 57 0 0.0 0.0 0.29 0.43 0.43 89 1005.3
20260505201605 57 0 0.0 0.0 0.30 0.43 0.43 89 1005.2
20260505201404 57 0 0.0 0.0 0.28 0.41 0.41 89 1005.4
20260505201304 57 0 0.0 0.0 0.28 0.40 0.40 89 1005.5
20260505201104 57 0 0.0 0.0 0.27 0.39 0.39 89 1005.5
20260505201004 57 0 0.0 0.0 0.26 0.38 0.38 89 1005.3
20260505200911 57 0 0.0 0.0 0.26 0.37 0.37 89 1005.3
20260505200604 57 0 0.0 0.0 0.24 0.35 0.35 88 1005.1
20260505200504 57 0 0.0 0.0 0.24 0.34 0.34 88 1005.2
20260505200404 57 0 0.0 0.0 0.22 0.33 0.33 88 1005.4
20260505200304 57 0 0.0 0.0 0.22 0.32 0.32 88 1005.3
20260505200204 57 0 0.0 0.0 0.22 0.31 0.31 88 1005.3
20260505200104 57 0 0.0 0.0 0.21 0.31 0.31 88 1005.4
20260505195904 57 0 0.0 0.0 0.20 0.30 0.30 88 1005.2
20260505195804 57 0 0.0 0.0 0.21 0.30 0.30 88 1005.3
20260505195704 57 0 0.0 0.0 0.20 0.30 0.30 88 1005.3
20260505195613 57 0 0.0 0.0 0.20 0.29 0.29 88 1005.3
20260505195504 57 0 0.0 0.0 0.19 0.28 0.28 88 1005.2
20260505195204 57 0 0.0 0.0 0.19 0.27 0.27 88 1005.3
20260505195104 57 0 0.0 0.0 0.18 0.26 0.26 88 1005.3
20260505195005 57 0 0.0 0.0 0.18 0.26 0.26 88 1005.4
20260505194904 57 0 0.0 0.0 0.17 0.25 0.25 88 1005.2
20260505194804 57 0 0.0 0.0 0.17 0.25 0.25 88 1005.2
20260505194705 57 0 0.0 0.0 0.17 0.24 0.24 88 1005.4
20260505194604 57 0 0.0 0.0 0.16 0.24 0.24 88 1005.3
20260505194504 57 0 0.0 0.0 0.16 0.23 0.23 88 1005.3
20260505194404 57 0 0.0 0.0 0.16 0.23 0.23 88 1005.3
20260505194204 57 0 0.0 0.0 0.15 0.22 0.22 88 1005.2
20260505194104 57 0 0.0 0.0 0.15 0.22 0.22 87 1005.1
20260505194006 57 0 0.0 0.0 0.15 0.22 0.22 88 1005.1
20260505193904 57 0 0.0 0.0 0.15 0.22 0.22 87 1005.3
20260505193804 57 0 0.0 0.0 0.15 0.22 0.22 87 1005.2
20260505193712 57 0 0.0 0.0 0.14 0.21 0.21 87 1005.3
20260505193604 57 0 0.0 0.0 0.13 0.20 0.20 87 1005.3
20260505193411 57 0 0.0 0.0 0.13 0.20 0.20 87 1005.3
20260505193304 57 0 0.0 0.0 0.12 0.19 0.19 87 1005.2
20260505193104 57 0 0.0 0.0 0.11 0.19 0.19 87 1005.2
20260505193004 57 0 0.0 0.0 0.11 0.19 0.19 87 1005.3
20260505192904 57 0 0.0 0.0 0.11 0.18 0.18 87 1005.2
20260505192804 57 0 0.0 0.0 0.10 0.17 0.17 87 1005.3
20260505192705 57 0 0.0 0.0 0.10 0.17 0.17 87 1005.4
20260505192605 58 0 0.0 0.0 0.09 0.17 0.17 87 1005.4
20260505192504 58 0 0.0 0.0 0.09 0.16 0.16 87 1005.4
20260505192404 58 0 0.0 0.0 0.08 0.15 0.16 87 1005.5
20260505192204 58 0 0.0 0.0 0.08 0.15 0.15 87 1005.4
20260505192105 58 0 0.0 0.0 0.08 0.15 0.15 87 1005.5
20260505192004 58 0 0.0 0.0 0.08 0.15 0.15 87 1005.3
20260505191905 58 0 0.0 0.0 0.07 0.14 0.14 87 1005.3
20260505191804 58 0 0.0 0.0 0.07 0.14 0.14 87 1005.5
20260505191704 58 0 0.0 0.0 0.07 0.14 0.14 87 1005.4
20260505191604 58 0 0.0 0.0 0.07 0.13 0.14 87 1005.4
20260505191504 58 0 0.0 0.0 0.07 0.13 0.13 87 1005.4
20260505191405 58 0 0.0 0.0 0.06 0.13 0.13 87 1005.4
20260505191304 58 0 0.0 0.0 0.06 0.12 0.12 87 1005.6
20260505191204 58 0 0.0 0.0 0.06 0.12 0.12 87 1005.6
20260505191104 58 0 0.0 0.0 0.06 0.12 0.12 87 1005.5
20260505191005 58 0 0.0 0.0 0.06 0.12 0.12 87 1005.4
20260505190904 58 0 0.0 0.0 0.06 0.11 0.11 87 1005.6
20260505190804 58 0 0.0 0.0 0.05 0.11 0.11 87 1005.4
20260505190704 58 0 0.0 0.0 0.05 0.11 0.11 87 1005.5
20260505190604 58 0 0.0 0.0 0.05 0.11 0.11 87 1005.5
20260505190505 58 0 0.0 0.0 0.05 0.11 0.11 87 1005.6
20260505190405 58 0 0.0 0.0 0.05 0.10 0.10 87 1005.4
20260505190204 58 0 0.0 0.0 0.04 0.10 0.10 86 1005.6
20260505190105 58 0 0.0 0.0 0.04 0.10 0.10 86 1005.5
20260505190005 58 0 0.0 0.0 0.04 0.09 0.09 86 1005.6
20260505185804 58 0 0.0 0.0 0.04 0.09 0.09 86 1005.5
20260505185704 58 0 0.0 0.0 0.04 0.09 0.09 86 1005.4
20260505185611 58 0 0.0 0.0 0.04 0.09 0.09 86 1005.3
20260505185505 58 0 0.0 0.0 0.04 0.09 0.09 86 1005.2
20260505185305 58 0 0.0 0.0 0.03 0.08 0.08 86 1005.3
20260505185204 58 0 0.0 0.0 0.03 0.08 0.08 86 1005.4
20260505185104 58 0 0.0 0.0 0.03 0.08 0.08 86 1005.3
20260505185011 58 0 0.0 0.0 0.03 0.08 0.08 86 1005.3
20260505184905 58 0 0.0 0.0 0.03 0.08 0.08 86 1005.2
20260505184812 58 0 0.0 0.0 0.03 0.07 0.07 86 1005.3
20260505184705 58 0 0.0 0.0 0.03 0.07 0.07 86 1005.3
20260505184504 58 0 0.0 0.0 0.03 0.07 0.07 86 1005.4
20260505184404 58 0 0.0 0.0 0.03 0.07 0.07 86 1005.2
20260505184304 58 0 0.0 0.0 0.03 0.07 0.07 86 1005.0
20260505184204 58 0 0.0 0.0 0.03 0.07 0.07 86 1005.2
20260505184104 58 0 0.0 0.0 0.03 0.07 0.07 86 1005.2
20260505184005 58 0 0.0 0.0 0.03 0.07 0.07 86 1005.1
20260505183904 58 0 0.0 0.0 0.03 0.07 0.07 86 1005.3
20260505183804 58 0 0.0 0.0 0.03 0.07 0.07 86 1005.2
20260505183704 58 0 0.0 0.0 0.03 0.07 0.07 86 1005.2
20260505183604 58 0 0.0 0.0 0.03 0.07 0.07 86 1005.3
20260505183505 58 0 0.0 0.0 0.03 0.07 0.07 86 1005.2
20260505183404 58 0 0.0 0.0 0.03 0.07 0.07 86 1005.3
20260505183305 58 0 0.0 0.0 0.03 0.07 0.07 86 1005.4
20260505183205 58 0 0.0 0.0 0.03 0.07 0.07 86 1005.2
20260505183104 58 0 0.0 0.0 0.03 0.07 0.07 86 1005.2
20260505182804 58 0 0.0 0.0 0.03 0.07 0.07 86 1005.2
20260505182704 58 0 0.0 0.0 0.03 0.07 0.07 86 1005.3
20260505182604 58 0 0.0 0.0 0.03 0.07 0.07 86 1005.0
20260505182504 58 0 0.0 0.0 0.03 0.07 0.07 86 1005.3
20260505182404 58 0 0.0 0.0 0.03 0.07 0.07 86 1005.1
20260505182306 58 0 0.0 0.0 0.03 0.07 0.07 86 1005.2
20260505182104 58 0 0.0 0.0 0.03 0.07 0.07 86 1005.1
20260505182005 58 0 0.0 0.0 0.03 0.07 0.07 86 1005.1
20260505181905 58 0 0.0 0.0 0.03 0.07 0.07 86 1005.2
20260505181805 58 0 0.0 0.0 0.03 0.07 0.07 86 1005.3
20260505181612 58 0 0.0 0.0 0.03 0.07 0.07 85 1005.1
20260505181504 58 0 0.0 0.0 0.03 0.07 0.07 85 1005.3
20260505181304 58 0 0.0 0.0 0.02 0.07 0.06 85 1005.1
20260505181204 58 0 0.0 0.0 0.02 0.07 0.06 85 1005.1
20260505181104 58 0 0.0 0.0 0.02 0.07 0.06 85 1005.1
20260505180804 58 0 0.0 0.0 0.02 0.06 0.06 85 1005.2
20260505180704 59 0 0.0 0.0 0.02 0.06 0.06 85 1005.2
20260505180604 59 0 0.0 0.0 0.02 0.06 0.06 85 1005.1
20260505180505 59 0 0.0 0.0 0.02 0.06 0.06 85 1005.1
20260505180404 59 0 0.0 0.0 0.02 0.06 0.06 85 1005.1
20260505180204 59 0 0.0 0.0 0.02 0.06 0.06 85 1005.2
20260505180104 59 0 0.0 0.0 0.02 0.06 0.06 85 1005.1
20260505180005 59 0 0.0 0.0 0.02 0.06 0.06 85 1005.0
20260505175905 59 0 0.0 0.0 0.02 0.06 0.06 85 1005.1
20260505175804 59 0 0.0 0.0 0.01 0.06 0.05 85 1005.1
20260505175711 59 0 0.0 0.0 0.01 0.06 0.05 85 1005.3
20260505175704 59 0 0.0 0.0 0.01 0.06 0.05 84 1005.3
20260505175604 59 0 0.0 0.0 0.01 0.06 0.05 84 1005.1
20260505175404 59 0 0.0 0.0 0.01 0.06 0.05 84 1005.1
20260505175305 59 0 0.0 0.0 0.01 0.06 0.05 84 1005.1
20260505175204 59 0 0.0 0.0 0.01 0.06 0.05 84 1005.1
20260505175104 59 89 0.0 1.0 0.01 0.05 0.05 84 1005.2
20260505175005 59 104 0.0 1.0 0.01 0.05 0.05 84 1005.0
20260505174904 59 104 0.0 1.0 0.01 0.05 0.05 84 1005.0
20260505174804 59 91 0.0 2.0 0.01 0.05 0.05 84 1005.0
20260505174704 59 87 0.0 3.0 0.01 0.05 0.05 84 1005.1
20260505174604 59 89 0.0 3.0 0.01 0.05 0.05 84 1005.1
20260505174504 59 89 0.0 3.0 0.00 0.05 0.04 84 1005.2
20260505174404 59 85 0.0 3.0 0.00 0.05 0.04 84 1005.2
20260505174304 59 85 0.0 3.0 0.00 0.05 0.04 84 1005.2
20260505174204 59 84 1.0 3.0 0.00 0.05 0.04 84 1005.3
20260505174104 59 84 1.0 3.0 0.00 0.05 0.04 84 1005.2
20260505173904 59 86 1.0 3.0 0.00 0.04 0.04 84 1005.2
20260505173804 59 86 1.0 3.0 0.00 0.04 0.04 84 1005.1
20260505173712 59 91 1.0 6.0 0.00 0.04 0.04 84 1005.2
20260505173704 59 90 1.0 6.0 0.00 0.04 0.04 84 1005.2
20260505173404 59 93 1.0 6.0 0.00 0.04 0.04 83 1005.0
20260505173305 59 94 1.0 6.0 0.00 0.04 0.04 83 1005.1
20260505173212 60 96 1.0 6.0 0.00 0.04 0.04 83 1005.3
20260505173205 60 98 1.0 6.0 0.00 0.04 0.04 83 1005.3
20260505173104 60 97 1.0 6.0 0.00 0.05 0.04 83 1005.1
20260505172904 60 96 1.0 6.0 0.00 0.05 0.04 83 1005.0
20260505172804 60 95 1.0 6.0 0.00 0.05 0.04 83 1005.2
20260505172712 60 90 1.0 7.0 0.00 0.05 0.04 83 1005.2
20260505172704 60 89 1.0 7.0 0.00 0.05 0.04 83 1005.2
20260505172605 60 88 1.0 7.0 0.00 0.05 0.04 83 1005.1
20260505172404 60 88 1.0 7.0 0.00 0.05 0.04 83 1005.3
20260505172306 60 87 1.0 7.0 0.00 0.05 0.04 82 1005.3
20260505172204 60 84 1.0 7.0 0.00 0.05 0.04 82 1005.2
20260505172104 60 84 1.0 7.0 0.00 0.05 0.04 82 1005.2
20260505172004 60 83 1.0 7.0 0.00 0.05 0.04 82 1005.0
20260505171811 60 78 1.0 7.0 0.00 0.05 0.04 82 1005.2
20260505171804 60 78 2.0 7.0 0.00 0.05 0.04 82 1005.2
20260505171704 60 78 1.0 6.0 0.00 0.05 0.04 82 1005.3
20260505171504 60 71 1.0 3.0 0.00 0.05 0.04 82 1005.1
20260505171404 60 74 1.0 6.0 0.00 0.05 0.04 82 1005.1
20260505171304 60 73 1.0 6.0 0.00 0.05 0.04 81 1005.1
20260505171204 60 70 2.0 6.0 0.00 0.05 0.04 81 1005.1
20260505171004 60 69 2.0 6.0 0.00 0.05 0.04 81 1005.3
20260505170904 60 70 2.0 6.0 0.00 0.05 0.04 81 1005.3
20260505170804 60 69 2.0 6.0 0.00 0.05 0.04 81 1005.3
20260505170712 60 67 2.0 7.0 0.00 0.05 0.04 81 1005.1
20260505170704 60 66 2.0 7.0 0.00 0.05 0.04 81 1005.1
20260505170411 60 64 2.0 7.0 0.00 0.06 0.04 81 1005.3
20260505170404 60 63 2.0 7.0 0.00 0.06 0.04 81 1005.3
20260505170304 60 63 2.0 7.0 0.00 0.06 0.04 81 1005.2
20260505170104 60 63 2.0 7.0 0.00 0.07 0.04 80 1005.4
20260505170006 61 63 2.0 7.0 0.00 0.07 0.04 80 1005.2
20260505165905 61 62 2.0 7.0 0.00 0.08 0.04 80 1005.2
20260505165804 61 62 2.0 7.0 0.00 0.08 0.04 80 1005.1
20260505165704 61 64 2.0 4.0 0.00 0.08 0.04 80 1005.4
20260505165606 61 69 1.0 4.0 0.00 0.09 0.04 80 1005.3
20260505165504 61 69 2.0 6.0 0.00 0.09 0.04 80 1005.2
20260505165404 61 69 1.0 6.0 0.00 0.10 0.04 80 1005.3
20260505165306 61 69 1.0 6.0 0.00 0.11 0.04 80 1005.3
20260505165104 61 67 1.0 6.0 0.00 0.13 0.04 80 1005.3
20260505165004 61 69 2.0 6.0 0.00 0.13 0.04 80 1005.2
20260505164904 61 68 2.0 6.0 0.00 0.14 0.04 80 1005.3
20260505164804 61 68 1.0 6.0 0.00 0.14 0.04 80 1005.5
20260505164604 61 64 2.0 6.0 0.00 0.14 0.04 80 1005.4
20260505164504 61 59 1.0 6.0 0.00 0.14 0.04 80 1005.5
20260505164404 61 59 1.0 6.0 0.00 0.14 0.04 80 1005.4
20260505164304 61 59 1.0 6.0 0.00 0.14 0.04 80 1005.5
20260505164204 61 59 1.0 6.0 0.00 0.14 0.04 80 1005.4
20260505164104 61 59 1.0 4.0 0.00 0.14 0.04 80 1005.3
20260505164004 61 53 1.0 4.0 0.00 0.14 0.04 80 1005.5
20260505163904 61 52 1.0 4.0 0.00 0.14 0.04 80 1005.3
20260505163804 61 50 0.0 4.0 0.00 0.14 0.04 80 1005.5
20260505163705 62 46 0.0 4.0 0.00 0.14 0.04 80 1005.3
20260505163604 62 43 0.0 4.0 0.00 0.14 0.04 80 1005.4
20260505163504 62 65 0.0 2.0 0.00 0.14 0.04 80 1005.4
20260505163404 62 65 0.0 4.0 0.00 0.14 0.04 80 1005.5
20260505163304 62 67 0.0 4.0 0.00 0.14 0.04 80 1005.4
20260505163104 62 67 1.0 4.0 0.00 0.14 0.04 80 1005.4
20260505163004 62 66 1.0 4.0 0.00 0.14 0.04 80 1005.5
20260505162904 62 66 1.0 4.0 0.00 0.14 0.04 80 1005.4
20260505162804 62 65 1.0 4.0 0.00 0.14 0.04 80 1005.5
20260505162704 62 64 1.0 4.0 0.00 0.14 0.04 80 1005.4
20260505162604 62 63 1.0 4.0 0.00 0.14 0.04 80 1005.4
20260505162405 62 66 1.0 4.0 0.00 0.14 0.04 80 1005.4
20260505162306 62 62 1.0 4.0 0.00 0.14 0.04 80 1005.8
20260505162204 62 62 1.0 6.0 0.00 0.14 0.04 80 1005.4
20260505162104 62 62 1.0 6.0 0.01 0.14 0.04 80 1005.5
20260505162006 62 63 1.0 6.0 0.01 0.14 0.04 80 1005.5
20260505161904 62 65 1.0 6.0 0.01 0.14 0.04 80 1005.4
20260505161806 62 65 1.0 6.0 0.01 0.14 0.04 80 1005.5
20260505161704 62 67 1.0 6.0 0.01 0.14 0.04 80 1005.5
20260505161604 62 72 1.0 6.0 0.01 0.14 0.04 80 1005.5
20260505161404 62 70 1.0 6.0 0.01 0.14 0.04 80 1005.6
20260505161306 62 73 1.0 6.0 0.01 0.14 0.04 80 1005.6
20260505161212 62 72 1.0 6.0 0.01 0.14 0.04 80 1005.5
20260505161206 62 71 1.0 6.0 0.01 0.14 0.04 80 1005.5
20260505161112 62 69 2.0 6.0 0.01 0.14 0.04 80 1005.5
20260505160804 62 64 2.0 6.0 0.01 0.14 0.04 81 1005.5
20260505160704 62 62 2.0 6.0 0.01 0.14 0.04 81 1005.8
20260505160606 62 57 2.0 6.0 0.01 0.14 0.04 81 1005.5
20260505160504 62 53 2.0 6.0 0.01 0.14 0.04 81 1005.4
20260505160404 62 51 2.0 4.0 0.01 0.14 0.04 81 1005.5
20260505160304 62 50 2.0 4.0 0.01 0.14 0.04 81 1005.5
20260505160104 62 49 2.0 6.0 0.01 0.14 0.04 81 1005.8
20260505153304 62 51 3.0 8.0 0.01 0.14 0.04 80 1005.8
20260505153204 62 52 3.0 7.0 0.01 0.14 0.04 80 1005.6
20260505153104 63 54 3.0 7.0 0.01 0.14 0.04 79 1005.5
20260505153005 63 55 2.0 6.0 0.01 0.14 0.04 79 1005.6
20260505152911 63 54 2.0 4.0 0.00 0.14 0.04 79 1005.6
20260505152904 63 54 2.0 6.0 0.00 0.14 0.04 79 1005.6
20260505152804 63 57 2.0 6.0 0.00 0.14 0.04 80 1005.8
20260505152604 63 61 2.0 6.0 0.00 0.14 0.04 79 1005.8
20260505152505 63 59 2.0 6.0 0.00 0.14 0.04 79 1005.6
20260505152305 63 60 2.0 6.0 0.00 0.14 0.04 79 1005.5
20260505152204 63 60 2.0 6.0 0.00 0.14 0.04 79 1005.5
20260505152104 63 59 2.0 6.0 0.00 0.13 0.03 78 1005.6
20260505152004 63 59 2.0 6.0 0.00 0.13 0.03 79 1005.6
20260505151904 63 60 2.0 4.0 0.00 0.13 0.03 79 1005.8
20260505151804 63 59 2.0 4.0 0.00 0.13 0.03 78 1005.6
20260505151704 63 60 2.0 4.0 0.00 0.13 0.03 78 1005.8
20260505151604 63 58 2.0 4.0 0.00 0.13 0.03 78 1005.6
20260505151504 63 61 2.0 4.0 0.00 0.13 0.03 78 1005.4
20260505151404 63 59 2.0 6.0 0.00 0.13 0.03 78 1005.6
20260505151304 63 57 2.0 6.0 0.00 0.13 0.03 78 1005.8
20260505151205 63 56 2.0 6.0 0.00 0.13 0.03 78 1005.6
20260505151104 63 55 2.0 6.0 0.00 0.13 0.03 78 1005.9
20260505150904 63 50 3.0 8.0 0.00 0.13 0.03 78 1005.8
20260505150804 63 50 3.0 8.0 0.00 0.13 0.03 78 1006.1
20260505150704 63 48 3.0 8.0 0.00 0.13 0.03 77 1006.0
20260505150605 63 47 3.0 8.0 0.00 0.13 0.03 77 1006.0
20260505150504 63 48 4.0 8.0 0.00 0.13 0.03 77 1005.9
20260505150304 63 47 4.0 8.0 0.00 0.13 0.03 76 1005.9
20260505150213 63 48 4.0 8.0 0.00 0.13 0.03 76 1006.0
20260505150204 63 48 4.0 8.0 0.00 0.13 0.03 76 1006.0
20260505150104 63 48 3.0 8.0 0.00 0.13 0.03 76 1005.9
20260505140604 65 69 2.0 6.0 0.00 0.13 0.03 73 1006.3
20260505140504 65 70 2.0 6.0 0.00 0.13 0.03 74 1006.3
20260505140404 65 70 2.0 6.0 0.00 0.13 0.03 75 1006.3
20260505140304 65 66 2.0 6.0 0.00 0.13 0.03 76 1006.4
20260505140204 65 64 2.0 6.0 0.00 0.13 0.03 74 1006.3
20260505140105 65 61 2.0 7.0 0.00 0.13 0.03 75 1006.2
20260505130312 66 50 2.0 6.0 0.00 0.13 0.03 75 1006.9
20260505130304 66 49 2.0 6.0 0.00 0.13 0.03 75 1006.9
20260505130204 66 46 2.0 7.0 0.00 0.13 0.03 74 1006.8
20260505125004 66 75 2.0 8.0 0.00 0.13 0.03 70 1006.9
20260505124804 66 76 2.0 8.0 0.00 0.13 0.03 72 1007.0
20260505124704 66 70 2.0 8.0 0.00 0.13 0.03 73 1007.1
20260505124604 66 67 2.0 8.0 0.00 0.13 0.03 73 1007.1
20260505124511 66 65 2.0 8.0 0.00 0.13 0.03 75 1007.1
20260505124504 66 64 2.0 8.0 0.00 0.13 0.03 75 1007.1
20260505124404 66 61 2.0 8.0 0.00 0.13 0.03 74 1007.0
20260505124311 66 59 2.0 8.0 0.00 0.13 0.03 76 1007.1
20260505124204 65 58 3.0 8.0 0.00 0.13 0.03 76 1007.1
20260505124004 65 59 3.0 8.0 0.00 0.13 0.03 73 1007.2
20260505123904 65 59 3.0 8.0 0.00 0.13 0.03 76 1007.1
20260505123804 65 57 3.0 7.0 0.00 0.13 0.03 76 1007.1
20260505123704 65 54 3.0 7.0 0.00 0.13 0.03 77 1007.2
20260505123604 65 52 3.0 7.0 0.00 0.13 0.03 76 1007.1
20260505123504 65 49 3.0 7.0 0.00 0.13 0.03 73 1007.3
20260505123404 65 47 3.0 7.0 0.00 0.13 0.03 74 1007.3
20260505123304 65 47 3.0 7.0 0.00 0.13 0.03 75 1007.2
20260505123205 65 46 3.0 7.0 0.00 0.13 0.03 74 1007.1
20260505123104 65 47 3.0 7.0 0.00 0.13 0.03 74 1007.3
20260505122904 66 51 2.0 7.0 0.00 0.13 0.03 74 1007.3
20260505122804 66 53 2.0 6.0 0.00 0.13 0.03 75 1007.3
20260505122704 66 50 2.0 6.0 0.00 0.13 0.03 74 1007.2
20260505122604 66 48 2.0 8.0 0.00 0.13 0.03 72 1007.2
20260505122504 66 52 3.0 8.0 0.00 0.13 0.03 73 1007.3
20260505122404 67 50 3.0 8.0 0.00 0.13 0.03 72 1007.0
20260505122305 67 46 3.0 8.0 0.00 0.13 0.03 71 1007.2
20260505122204 67 46 3.0 8.0 0.00 0.13 0.03 73 1007.1
20260505122104 67 46 4.0 8.0 0.00 0.13 0.03 73 1007.2
20260505122004 67 44 4.0 8.0 0.00 0.13 0.03 73 1007.1
20260505121904 67 44 4.0 8.0 0.00 0.13 0.03 74 1007.2
20260505121804 67 44 4.0 8.0 0.00 0.13 0.03 75 1007.2
20260505121704 67 50 4.0 8.0 0.00 0.13 0.03 72 1007.4
20260505121604 67 54 3.0 8.0 0.00 0.13 0.03 74 1007.2